www.pogodaiklimat.ru

Погода и климат >> Архив погоды >> Аргентина >> Лабоулайе


ПОГОДА в Лабоулайе

  • Прогноз погоды в Лабоулайе
  • Монитор погоды в Лабоулайе

АРХИВ ПОГОДЫ в Лабоулайе

Время (UTC), дата Ветер
(напр.,м/с)
 
Видим.   Явления Облачность Т
(С)
Тd
(С)
f
(%)
Тe
(С)
Тes
(С)
Комфортность P
(гПа)
Po
(гПа)
Тmin
(С)
Tmax
(С)
R
(мм)
R24
(мм)
S
(см)
06 11.07 штиль 0 6000 м дымка 6/0
[Cs]
+6.0 +4.6 91 +5 +5 1014.8 998.4
09 11.07 штиль 0 100 м туман ясно +3.8 +3.1 95 +3 +3 1013.2 996.8
12 11.07 штиль 0 2000 м в посл. час туман туман 8/3 900 м
[Sc Cs]
+6.1 +4.5 89 +5 +5 1013.0 996.4 +3.5 +11.5
15 11.07 штиль 0 4000 м дымка 10/6 900 м
[Sc Ac As]
+11.3 +8.7 84 +11 +12 1014.0 997.4
18 11.07 СВ 3 8000 м мгла 9/5 900 м
[Sc Ac As]
+15.3 +9.8 70 +15 +16 1011.5 994.9
21 11.07 СВ 3 8000 м мгла 9/5 900 м
[Sc Ac As]
+14.7 +9.7 72 +14 +14 1011.5 994.9
00 12.07 Ю 3 8000 м дымка 6/6 900 м
[Sc]
+11.1 +7.2 77 +9 +9 1013.1 996.4 +6.1 +15.5
03 12.07 Ю 2 8000 м дымка 6/6 900 м
[Sc]
+9.7 +7.0 83 +8 +8 1014.1 997.6
06 12.07 штиль 0 8000 м дымка 3/3 900 м
[Sc]
+8.9 +7.4 90 +8 +8 1015.6 999.2
09 12.07 Ю 2 5000 м дымка ясно +8.3 +6.8 90 +6 +6 1015.9 999.3
12 12.07 Ю 2 1500 м дымка ясно +7.0 +5.9 93 +5 +5 1016.8 1000.1 +7.0 +11.4
15 12.07 Ю 2 10 км ясно +13.6 +6.1 60 +13 +19 1018.6 1002.0
18 12.07 штиль 0 10 км ясно +17.9 +4.6 41 +18 +25 1017.3 1000.8
21 12.07 Ю 1 10 км ясно +15.3 +3.9 46 +16 +16 1016.8 1000.4
00 13.07 штиль 0 10 км 3/0
[Ac As]
+9.7 +3.6 66 +9 +9 1018.6 1001.8 +7.0 +18.3
03 13.07 штиль 0 10 км 1/0
[Ac As]
+5.5 +0.7 71 +5 +5 1019.7 1003.0
06 13.07 штиль 0 10 км 6/0
[Ac As]
+5.2 +0.3 71 +4 +4 1019.8 1003.2
09 13.07 штиль 0 10 км ясно +3.5 +0.1 78 +3 +3 1018.5 1001.8
12 13.07 штиль 0 10 км 9/6 600 м
[Sc Ac As]
+5.1 +1.3 76 +4 +4 1018.5 1001.7 +3.0 +9.7
15 13.07 СВ 2 10 км 9/1 600 м
[Sc Ac As]
+11.3 +5.0 65 +10 +12 1019.3 1002.5
18 13.07 СВ 4 10 км 9/0
[Ac As]
+16.3 +4.8 46 +16 +17 1016.7 1000.1
21 13.07 СВ 4 10 км 9/0
[Ac As]
+14.3 +5.3 55 +13 +13 1017.3 1000.6
00 14.07 штиль 0 10 км 3/0
[Ac As]
+7.9 +5.9 87 +7 +7 1019.2 1002.4 +5.1 +16.4
03 14.07 штиль 0 8000 м дымка ясно +4.5 +3.0 90 +3 +3 1020.9 1004.1
06 14.07 штиль 0 100 м туман ясно +3.3 +2.3 93 +2 +2 1021.3 1004.6
09 14.07 штиль 0 <100 м туман ?/? +0.7 -0.4 92 -1 -1 1020.2 1003.3
12 14.07 штиль 0 100 м туман ясно +0.8 0.0 94 -1 0 1019.6 1002.5 -0.5 +7.9
15 14.07 С 7 7000 м дымка {туман} 6/0
[Ac trans Ci]
+12.0 +6.8 70 +9 +10 1019.9 1003.2
18 14.07 С 8 9000 м мгла {туман} 4/0
[Ac trans]
+17.0 +3.0 39 +16 +16 1016.6 1000.0
21 14.07 СВ 3 10 км 9/0
[Ac trans Ci]
+14.0 +3.8 50 +13 +13 1015.8 999.0
00 15.07 штиль 0 8000 м дымка 4/0
[Ci]
+7.9 +3.2 72 +7 +7 1018.7 1001.7 +0.8 +18.0
03 15.07 штиль 0 8000 м дымка 6/0
[Cs]
+6.5 +2.9 78 +6 +6 1019.7 1003.0
06 15.07 С 2 10 км ясно +6.3 +3.2 81 +4 +4 1020.0 1003.4
09 15.07 Ю 3 10 км ясно +5.1 +2.4 83 +2 +2 1021.7 1005.0
12 15.07 штиль 0 10 км ясно +4.0 -0.6 72 +3 +4 1024.4 1007.4 +3.5 +7.9
15 15.07 Ю 5 10 км 5/0
[Ci]
+12.8 -2.3 35 +11 +14 1025.5 1008.6
18 15.07 Ю 1 10 км 1/0
[Ci]
+16.2 -2.3 28 +17 +23 1023.6 1006.9
21 15.07 штиль 0 10 км ясно +14.6 0.0 37 +15 +15 1023.0 1006.4
00 16.07 штиль 0 10 км 3/0
[Ci]
+6.7 -0.2 61 +6 +6 1024.4 1007.3 +4.0 +16.6
03 16.07 штиль 0 10 км ясно +4.6 -1.1 66 +4 +4 1024.0 1007.2
06 16.07 штиль 0 10 км ясно +1.4 -2.4 76 +1 +1 1023.7 1006.9
09 16.07 штиль 0 10 км ясно +0.1 -2.6 82 -1 -1 1022.6 1005.7
12 16.07 штиль 0 10 км ясно +0.2 -3.5 76 -1 -0 1022.6 1005.4 -1.5 +6.7
15 16.07 С 8 10 км ясно +14.3 +2.5 45 +12 +13 1021.9 1005.2
18 16.07 С 10 8000 м пыльный позёмок ясно +19.2 +4.3 37 +19 +19 1017.7 1001.0
21 16.07 С 5 10 км ясно +17.2 +5.8 47 +17 +17 1017.5 1000.8
00 17.07 С 1 10 км ясно +9.3 +5.6 78 +9 +9 1019.1 1002.1 +0.2 +19.4
03 17.07 СВ 4 10 км 8/0
[Ci]
+8.8 +3.8 71 +6 +6 1020.0 1003.3
06 17.07 СВ 1 12 км 4/0
[Ci]
+5.8 +3.9 88 +5 +5 1019.3 1002.8
09 17.07 штиль 0 12 км 4/0
[Ci]
+5.7 +2.5 80 +5 +5 1017.5 1000.9
12 17.07 С 8 10 км 8/0
[Ac As Cs]
+7.9 +4.5 79 +3 +3 1018.7 1002.0 +4.6 +9.5
15 17.07 С 10 10 км 8/0
[Cs]
+16.7 +7.4 54 +15 +15 1017.5 1001.0
18 17.07 С 12 8000 м пыльный позёмок 8/0
[Cs]
+20.3 +10.7 54 +21 +21 комфорт 1013.7 997.3
21 17.07 С 12 8000 м пыльный позёмок 9/0
[Ac As Cs]
+19.1 +7.7 48 +19 +19 1012.6 996.1
00 18.07 С 5 10 км 8/0
[Cs]
+14.5 +6.5 59 +13 +13 1013.8 997.3 +7.9 +21.5
03 18.07 С 3 10 км 8/0
[Cs]
+11.7 +6.0 68 +10 +10 1013.3 997.0

 

Местоположение метеостанции Лабоулайе (Аргентина): широта -34.13 долгота -63.36 высота над уровнем моря 137 м.

В архиве по умолчанию представлена погода в Лабоулайе за последнюю неделю. Архивные данные за месяц целиком и за предыдущие месяцы, начиная с января 2011 года, Вы можете получить, выбрав интересующий диапазон дат из раскрывающегося списка и нажав кнопку "Ввод!".


*Определитесь, кто Вы:
робот инопланетянин человек

Внимание! Время в таблицах - всемирное. Для получения местного времени необходимо прибавить поправку, которая равна -3 ч.

Смотрите также архив погоды в соседних городах и на ближайших метеорологических станциях:

Погода в Рио-Куарто (Аргентина) (143 км)
Погода в Хенераль Пико (Аргентина) (178 км)
Погода в Вилья Рейнольдс (Аргентина) (192 км)
Погода в Маркос Хуарес (Аргентина) (195 км)
Погода в Хунине (Аргентина) (230 км)
Погода в Росарио (Аргентина) (275 км)
Погода в Пиларе (Аргентина) (279 км)
Погода в Санкт-Розе (Аргентина) (282 км)
Погода в Сан-Луисе (Аргентина) (293 км)
Погода в Вилла Долорес (Аргентина) (293 км)

Пояснения к столбцам:

Ветер - указаны скорость ветра в м/с - средняя за 10 мин, порывы в срок и между сроками (в фигурных скобках) и направление, откуда дует ветер: С - северный, СВ - северо-восточный, В - восточный, ЮВ - юго-восточный, Ю - южный, ЮЗ - юго-западный, З - западный, СЗ - северо-западный.
Видимость - горизонтальная дальность видимости в метрах или километрах. При видимости от 1 до 10 км при отсутствии осадков обычно наблюдается дымка, при ухудшении видимости до 1 км и менее - туман. В сухую погоду видимость может ухудшаться дымом, пылью или мглою.
Явления - указаны атмосферные явления, наблюдавшиеся в срок или в последний час перед сроком; фигурными скобками обозначены явления, наблюдавшиеся между сроками (за 1-3 часа до срока); квадратными скобками обозначены град или гололедные отложения с указанием их диаметра в мм.
Облачность - указаны через наклонную черту общая и нижняя облачность в баллах и высота нижней границы облаков в метрах; квадратными скобками обозначены формы облаков: Ci - перистые, Cs - перисто-слоистые, Cc - перисто-кучевые, Ac - высококучевые, As - высокослоистые, Sc - слоисто-кучевые, Ns - слоисто-дождевые, Cu - кучевые, Cb - кучево-дождевые. Подробнее классификацию облаков см. в Атласе облаков (PDF).
T - Температура воздуха - температура, измеренная на высоте 2 м над землей.
Td - Температура точки росы - температура, при понижении до которой содержащийся в воздухе водяной пар достигнет насыщения.
f - Относительная влажность воздуха - влажноcть воздуха, измеренная на высоте 2 м над землей.
Te - Эффективная температура - температура, которую ощущает одетый по сезону человек в тени. Характеристика душности погоды. При расчете учитывается влияние влажности воздуха и скорости ветра на теплоощущения человека.
Tes - Эффективная температура на солнце - температура, которую ощущает человек, с поправкой на солнечный нагрев. Характеристика знойности погоды. Зависит от высоты солнца над горизонтом, облачности и скорости ветра. Ночью, в пасмурную погоду, а также при ветре 12 м/с и более поправка равна нулю.
P - Атмосферное давление - приведенное к уровню моря атмосферное давление.
Po - Атмосферное давление - измеренное на уровне метеостанции атмосферное давление.
Tmin - Минимальная температура - минимум температуры воздуха на высоте 2 м над землей.
Tmax - Максимальная температура - максимум температуры воздуха на высоте 2 м над землей.
R - Количество осадков - Количество выпавших осадков за период времени, мм. При наведении курсора мыши на число - период времени, за который выпало указанное количество осадков.
R24 - Количество осадков - Количество выпавших осадков за 24 часа, мм.
S - Снежный покров - Высота снежного покрова, см. При наведении курсора мыши на число - состояние снежного покрова и степень покрытия местности в баллах.